Location: Busenberg
(49.1316°N, 7.8294°E)
Time: 16:27:58
(UTC+00:00)

Daily predictions for brighter satellites

Satellite Brightness Start Highest point End
(mag) Time Altitude Azimuth Time Altitude Azimuth Time Altitude Azimuth
Cosmos 2360 Rocket 2.4 15:58:19 10° SSW 16:04:00 80° WNW 16:09:43 10° NNE
CZ-4B R/B 1.9 16:01:26 10° N 16:04:57 68° WNW 16:08:25 10° SSW
SMAP 3.6 16:01:58 10° SE 16:06:14 37° ENE 16:10:32 10° N
SL-16 R/B 4.4 16:02:11 10° N 16:06:52 23° NW 16:11:33 10° WSW
NOSS 2-2 (C) 4.3 16:06:00 10° WSW 16:09:32 40° NW 16:13:43 10° NE
Cosmos 2369 Rocket 4.1 16:08:59 10° NNE 16:09:45 10° NNE 16:10:31 10° NNE
Cosmos 1980 Rocket 4.3 16:07:19 10° WNW 16:11:09 18° NW 16:15:01 10° N
Cosmos 1400 Rocket 3.5 16:07:13 10° SSW 16:11:16 58° WNW 16:15:17 10° N
ALOS 2.9 16:09:41 10° S 16:14:18 62° W 16:18:57 10° NNW
Okean O Rocket 1.9 16:11:32 10° S 16:15:52 74° WSW 16:20:13 10° NNW
Cosmos 304 Rocket 3.7 16:12:47 10° NNW 16:17:37 78° ENE 16:22:26 10° SSE
Cosmos 2333 Rocket 2.5 16:12:38 10° S 16:18:10 52° ESE 16:23:45 10° NE
Cosmos 494 Rocket 4.2 16:16:33 10° SSW 16:21:50 81° WNW 16:27:08 10° NNE
Cosmos 2228 Rocket 4.3 16:20:02 10° SSW 16:24:25 46° WNW 16:28:53 10° N
Meteor 1-11 Rocket 4.1 16:19:29 10° N 16:25:18 50° ENE 16:31:04 10° SSE
Cosmos 2237 Rocket 3.3 16:21:06 10° SSE 16:25:34 24° ESE 16:29:56 10° NE
Radarsat Rocket 4.3 16:19:32 10° SSE 16:25:44 76° WSW 16:31:37 10° NNW
Cosmos 2322 Rocket 3.6 16:24:25 10° WSW 16:29:28 33° NW 16:34:33 10° NNE
Cosmos 2279 Rocket 4.0 16:23:51 10° N 16:30:09 85° E 16:36:25 10° S
Okean-O 3.2 16:26:19 10° SE 16:30:20 35° ENE 16:34:23 10° N
NOAA 12 4.4 16:26:53 10° SE 16:31:51 43° ENE 16:36:51 10° N
Cosmos 1812 3.5 16:28:46 10° SSE 16:32:13 31° E 16:35:41 10° NNE
Meteor 1-27 Rocket 4.3 16:27:08 10° SSE 16:32:21 37° E 16:37:41 10° NNE
Cosmos 1269 Rocket 4.2 16:27:44 10° SSW 16:33:03 78° WNW 16:38:23 10° NNE
ATLAS 2AS CENTAUR R/B 3.3 16:27:11 10° SW 16:35:11 70° NW 16:43:10 10° NE
Cosmos 1707 Rocket 3.5 16:30:49 10° S 16:35:17 79° E 16:39:47 10° NNE
RESURS DK-1 2.7 16:32:22 10° S 16:36:21 49° ESE 16:39:58 12° NE
SL-16 R/B 3.9 16:31:34 10° WSW 16:36:22 27° NW 16:41:12 10° NNE
STARLINK-67 2.7 16:34:11 10° WSW 16:36:56 63° NNW 16:38:49 18° ENE
Exosat Rocket 4.1 16:33:03 10° S 16:38:01 39° ESE 16:42:27 11° NE
BREEZE-M DEB (TANK) 3.7 16:36:54 10° W 16:39:46 32° SSW 16:41:47 10° SE
Cosmos 2219 Rocket 2.2 16:35:22 10° SSW 16:40:57 74° ESE 16:46:36 10° NNE
CORIOLIS 4.1 16:36:16 10° SSE 16:41:39 67° ENE 16:47:05 10° N
AQUARIUS 4.1 16:38:17 10° SSE 16:42:45 70° ENE 16:47:15 10° N
SeaSat 1 4.1 16:48:20 14° NE 16:49:13 15° NE 16:51:56 10° N
Shenzhou-11 Module 3.8 16:48:15 10° SW 16:50:25 21° S 16:52:19 12° SE
Cosmos 1500 3.0 16:46:55 10° N 16:50:42 69° E 16:54:25 10° SSE
Feng Yun 1-1 Rocket 4.2 16:45:53 10° SSE 16:51:17 88° WSW 16:56:43 10° NNW
Cosmos 1908 Rocket 4.1 16:48:22 10° N 16:52:27 35° ENE 16:56:29 10° SE
Nadezhda 4 Rocket 4.1 16:46:25 10° SSE 16:52:32 55° E 16:58:42 10° NNE
STARLINK-46 2.7 16:51:44 10° SW 16:54:21 54° SSE 16:55:24 29° E
COSMO-SKYMED 1 3.6 16:53:10 18° NE 16:55:23 26° E 16:59:02 10° SSE
Cosmos 1980 4.1 16:50:34 10° S 16:55:50 42° ESE 16:59:58 16° NE
Cosmos 1943 Rocket 3.6 16:53:00 10° N 16:56:46 18° NE 16:57:51 17° NE
Cosmos 1689 Rocket 4.5 16:54:34 10° NNW 16:57:05 23° WNW 16:59:33 10° WSW
Cosmos 2297 4.3 16:53:03 10° NNW 16:58:18 35° NE 17:03:21 11° ESE
Cosmos 2251 Rocket 3.6 16:53:35 10° S 16:58:45 55° ESE 17:03:18 13° NNE
YAOGAN 6 3.1 16:56:03 10° SE 16:59:15 33° ENE 17:02:31 10° N
Cosmos 1536 2.8 16:55:48 10° N 16:59:47 55° ENE 17:03:42 10° SSE
H-2A R/B 2.9 16:58:35 10° S 17:02:16 72° WSW 17:05:58 10° NNW
Cosmos 1441 Rocket 4.0 17:00:46 10° N 17:04:08 28° ENE 17:05:56 19° ESE
USA 215 3.4 16:59:38 17° NE 17:04:51 68° NNW 17:11:20 10° WSW
CSL-04 Rocket 4.1 17:00:49 10° SE 17:05:35 36° ENE 17:10:24 10° N
YAOGAN 1 3.3 17:02:03 10° SE 17:05:51 31° ENE 17:09:41 10° N
COSMOS 2428 2.9 17:05:03 10° SW 17:10:43 73° WNW 17:16:06 12° NNE
CZ-4 R/B 1.7 17:07:36 10° SE 17:11:15 39° ENE 17:14:52 10° N
Lacrosse 5 rocket 1.3 17:10:39 10° SW 17:14:55 69° SE 17:16:37 33° ENE
Cosmos 2026 Rocket 4.4 17:09:39 10° SSE 17:15:09 38° E 17:20:40 10° NNE
Aureole 1 Rocket 4.1 17:15:20 10° SSE 17:16:23 17° SE 17:16:23 17° SE
Envisat 2.9 17:13:07 10° SSE 17:18:12 85° ENE 17:23:19 10° NNW
Cosmos 1733 Rocket 3.8 17:13:58 10° NNW 17:18:15 54° W 17:22:31 10° S
Okean 1-7 3.7 17:15:11 10° SSE 17:19:02 32° E 17:19:11 32° E
CSL-04 Debris 4.4 17:13:58 10° SE 17:19:10 47° ENE 17:24:22 10° N
NOSS 7 (D) 4.0 17:18:31 10° NW 17:21:29 85° SW 17:23:12 25° SE
SL-4 R/B 1.8 17:20:02 10° WSW 17:23:49 81° NNW 17:25:07 42° ENE
Cosmos 1867 4.2 17:23:46 10° NNW 17:28:51 37° NE 17:30:02 33° ENE
Genesis I 3.4 17:25:06 10° NNW 17:28:55 48° NE 17:29:11 47° ENE
ISS -2.3 17:25:59 10° W 17:29:07 36° SSW 17:31:05 18° SSE
FengYun 1-2 T 4.1 17:25:27 10° SSE 17:30:55 82° ENE 17:36:28 10° NNW
Cosmos 1992 Rocket 4.5 17:26:42 10° NNW 17:31:52 63° WSW 17:37:01 10° S
Cosmos 1666 2.5 17:31:34 10° N 17:35:20 89° W 17:39:04 10° S
Sich 1 Rocket 4.4 17:34:54 10° N 17:37:45 33° NNE 17:37:45 33° NNE
NOAA 11 4.3 17:34:20 10° SE 17:39:37 52° ENE 17:44:56 10° N
Cosmos 1627 Rocket 4.4 17:34:03 10° S 17:40:02 61° E 17:46:05 10° NNE
Cosmos 2278 Rocket 3.2 17:35:38 10° NW 17:41:03 47° WSW 17:46:26 10° S
NOSS 5 (C) 4.4 17:38:16 10° NW 17:41:30 86° SW 17:42:22 51° SE
SKYMED 2 3.4 17:41:51 33° NNE 17:43:45 77° ESE 17:48:05 10° S
CZ-4 R/B 4.4 17:39:41 10° SSE 17:43:51 85° WSW 17:48:04 10° NNW
USA 229 DEB 4.5 17:38:07 10° NW 17:44:35 36° NNE 17:46:22 32° NE
USA 229 4.5 17:38:13 10° NW 17:44:41 36° NNE 17:46:26 32° NE
Cosmos 1782 Rocket 3.4 17:42:34 10° N 17:46:57 70° E 17:51:16 10° SSE
NOSS 3-4 (A) 4.5 17:42:59 10° W 17:48:42 40° NNW 17:52:28 21° NNE
NOSS 3-4 (C) 4.4 17:43:04 10° W 17:48:49 40° NNW 17:52:34 21° NNE
Cosmos 2360 Rocket 4.3 17:44:48 10° W 17:48:56 20° NW 17:53:05 10° N
Cosmos 921 Rocket 2.8 17:45:26 10° NNW 17:49:40 67° ENE 17:49:40 67° ENE
NOSS 0 Rocket 4.1 17:43:32 10° SW 17:49:45 75° WNW 17:53:49 23° NNE
Cosmos 2195 Rocket 4.4 17:45:19 10° S 17:51:31 80° E 17:57:50 10° NNE
NOAA 15 4.5 17:46:48 10° SSE 17:52:04 88° ENE 17:57:22 10° NNW
Cosmos 2369 Rocket 3.2 17:50:46 10° NNW 17:54:28 28° NNE 17:54:28 28° NNE
SL-16 R/B 2.4 17:51:44 10° S 17:57:01 46° ESE 17:57:01 46° ESE
Cosmos 1092 Rocket 4.1 17:51:48 10° SSW 17:58:07 80° W 18:04:26 10° N
Cosmos 2242 Rocket 4.4 17:54:52 10° SSW 17:59:20 53° WNW 18:03:10 14° N
Cosmos 1703 Rocket 3.5 17:55:21 10° S 17:59:49 86° W 18:01:05 47° N
Ariane Rocket 4.1 18:03:29 30° NNE 18:03:29 30° NNE 18:06:13 10° N
Cosmos 2333 Rocket 3.6 17:57:30 10° WSW 18:02:41 34° NW 18:06:46 15° N
Cosmos 2237 Rocket 2.5 18:03:31 10° SW 18:09:10 64° WNW 18:11:47 32° NNE
BREEZE-M R/B 3.4 18:05:57 10° W 18:09:34 49° WNW 18:09:34 49° WNW
RESURS DK-1 4.3 18:11:17 10° W 18:14:38 23° NW 18:15:53 20° NNW
Cosmos 2219 Rocket 4.0 18:20:52 10° W 18:25:29 25° NW 18:28:41 16° N
SeaSat 1 3.7 18:28:08 30° N 18:28:08 30° N 18:30:44 10° NNW
S3M 3.8 18:20:59 10° N 18:27:13 75° ENE 18:27:13 75° ENE
ATLAS 2AS CENTAUR R/B 4.2 18:20:27 10° W 18:27:35 33° NNW 18:30:47 25° NNE
COSMO-SKYMED 1 3.9 18:30:24 30° NNW 18:31:38 37° WNW 18:35:38 10° SW
Meteor 1-18 Rocket 4.3 18:34:40 10° SSW 18:40:24 75° WNW 18:40:29 75° WNW
Cosmos 1553 Rocket 4.2 18:35:08 10° NNW 18:41:27 70° W 18:47:49 10° S
Cosmos 1943 Rocket 3.1 18:35:59 10° NNW 18:39:24 37° NNW 18:39:24 37° NNW
YAOGAN 1 4.3 18:38:03 10° SSW 18:41:55 32° W 18:45:50 10° NNW
CZ-4 R/B 3.9 18:43:30 10° SW 18:46:26 20° W 18:49:22 10° NW
USA 215 3.8 18:46:59 45° N 18:47:23 46° N 18:53:33 10° WNW
Lacrosse 5 rocket 3.7 18:50:28 10° W 18:52:16 22° WNW 18:52:16 22° WNW
NOSS 3-1 (C) 4.4 19:21:27 10° NW 19:26:44 53° NNW 19:26:44 53° NNW
Cosmos 2369 Rocket 4.3 19:34:36 10° NW 19:36:16 20° NW 19:36:16 20° NW
SL-16 R/B 4.1 19:36:10 10° WSW 19:38:57 25° W 19:38:57 25° W
Cosmos 2344 4.4 19:50:51 10° NW 19:59:36 77° W 19:59:36 77° W
